Lid_Strength_Index
14 14 14 13 13 14 13 13 13 13 13 13 13 13 14 15 15 15 15 14 14 14 14 14 14 14 13 14 13 14 13 13
13 13 13 14 14 14 14 14 15 14 14 13 14 14 15 15 15 15 14 14 14 14 14 14 14 13 14 14 14 14 14 14
13 13 14 14 15 15 15 15 15 14 14 14 15 15 15 15 15 14 14 14 14 14 14 14 13 14 14 14 14 14 15 15
14 14 14 15 15 15 15 15 15 15 15 15 15 15 15 15 14 15 14 15 14 14 14 13 14 14 14 14 14 14 15 16
14 14 14 14 14 15 15 15 15 15 15 16 15 14 14 15 14 15 15 15 14 14 14 14 14 14 14 14 15 15 15 15
13 13 13 13 13 14 14 15 15 15 15 15 15 15 14 15 15 15 15 14 14 14 14 14 14 14 14 14 15 16 16 15
12 12 12 12 13 13 14 14 14 14 14 14 14 15 15 15 15 15 15 14 14 15 15 15 14 12 12 14 15 15 15 16
11 11 11 12 12 13 13 13 13 14 14 15 15 15 15 15 15 15 15 15 15 15 15 15 15 11 11 12 15 15 15 15
11 11 11 12 12 11 13 14 14 14 14 14 15 15 15 15 15 15 15 15 15 15 15 15 15 11 11 11 15 15 15 15
9 9 10 11 11 12 13 13 13 13 13 14 15 15 15 14 15 15 15 15 15 15 15 16 15 11 11 11 15 14 15 15
11 11 11 11 12 12 13 13 13 13 13 14 14 14 14 14 15 16 16 15 15 15 16 16 16 12 10 11 15 16 16 15
12 11 12 13 12 12 14 13 12 14 14 14 14 14 14 15 16 16 17 16 17 16 17 17 16 14 10 10 15 15 16 16
11 14 17 15 12 14 13 15 16 15 16 16 16 15 15 15 17 18 17 17 18 19 19 17 16 14 10 9 11 13 17 17
14 15 18 18 15 14 16 16 16 16 16 17 17 16 16 16 17 18 18 17 18 18 17 18 17 15 10 9 9 11 16 16
15 16 17 19 18 17 17 18 17 17 19 20 19 19 18 16 16 16 17 17 17 17 17 18 17 15 15 13 11 10 12 14
19 20 20 22 21 23 21 20 20 21 21 21 20 19 19 18 17 16 17 15 16 16 16 17 17 15 13 13 14 13 13 18
21 21 21 22 21 23 24 22 22 21 21 20 20 21 20 20 19 14 13 13 11 11 14 16 13 12 11 11 11 11 11 20
23 25 25 24 23 24 25 25 23 21 21 22 21 21 21 22 20 18 18 11 10 10 9 10 13 11 11 11 10 10 10 21
26 25 27 26 24 25 27 27 26 25 23 24 24 24 24 23 21 22 22 20 19 12 9 9 9 10 11 10 10 12 11 23
28 27 28 26 24 28 29 27 27 27 25 25 24 23 22 22 23 21 22 20 21 20 14 11 9 9 10 10 12 13 14 21